Location: Battersea Observatory
(44.4318°N, 76.3841°W)
Time: 05:20:02
(UTC-05:00)

Vanguard 2 Rocket - Visible Passes

Search period start: 19 January 2022 00:00
Search period end: 29 January 2022 00:00
Orbit: 554 x 3325 km, 32.9° (Epoch: 18 January)

Date Brightness Start Highest point End Pass type
(mag) Time Alt. Az. Time Alt. Az. Time Alt. Az.
19 Jan 10.3 01:58:56 31° SE 01:58:56 31° SE 02:13:13 10° E visible
19 Jan 9.9 04:04:43 37° SSW 04:13:00 52° SSE 04:30:58 10° E visible
19 Jan 9.9 06:10:39 10° WSW 06:30:11 57° S 06:45:54 10° ESE visible
20 Jan 10.7 01:02:33 19° ESE 01:02:33 19° ESE 01:09:39 10° E visible
20 Jan 9.8 03:08:20 45° S 03:11:05 46° SSE 03:29:20 10° E visible
20 Jan 9.8 05:14:06 24° WSW 05:28:06 58° S 05:45:22 10° ESE visible
21 Jan 10.1 02:11:51 38° SE 02:11:51 38° SE 02:27:05 10° E visible
21 Jan 9.8 04:17:38 39° SW 04:25:54 57° S 04:44:19 10° E visible
21 Jan 9.9 06:23:51 10° W 06:43:08 55° SSW 06:58:59 10° ESE visible
22 Jan 10.5 01:15:20 25° ESE 01:15:20 25° ESE 01:24:07 10° E visible
22 Jan 9.6 03:21:06 50° S 03:23:51 52° SSE 03:42:44 10° E visible
22 Jan 9.8 05:26:52 23° WSW 05:41:06 58° S 05:58:33 10° ESE visible
23 Jan 10.9 00:18:45 12° E 00:18:45 12° E 00:20:08 10° E visible
23 Jan 9.9 02:24:32 44° SE 02:24:32 44° SE 02:40:37 10° E visible
23 Jan 9.7 04:30:17 39° SW 04:38:53 58° S 04:57:33 10° ESE visible
23 Jan 10.0 06:37:09 10° W 06:55:58 50° SSW 07:11:49 10° SE visible
24 Jan 10.3 01:27:55 30° ESE 01:27:55 30° ESE 01:37:56 10° E visible
24 Jan 9.5 03:33:40 53° SSW 03:36:44 56° S 03:56:01 10° E visible
24 Jan 9.9 05:39:27 21° WSW 05:54:02 55° SSW 06:11:31 10° ESE visible
25 Jan 10.8 00:31:16 16° E 00:31:16 16° E 00:34:36 10° E visible
25 Jan 9.7 02:37:02 50° SE 02:37:02 50° SE 02:53:57 10° E visible
25 Jan 9.7 04:42:48 37° WSW 04:51:52 58° S 05:10:38 10° ESE visible
25 Jan 10.2 06:50:36 10° W 07:08:38 43° SSW 07:24:17 10° SE visible
26 Jan 10.1 01:40:23 34° ESE 01:40:23 34° ESE 01:51:24 10° E visible
26 Jan 9.5 03:46:08 53° SSW 03:49:42 58° S 04:09:09 10° ESE visible
26 Jan 10.0 05:51:54 18° W 06:06:51 50° SSW 06:24:13 10° SE visible
27 Jan 10.6 00:43:43 19° E 00:43:43 19° E 00:48:23 10° E visible
27 Jan 9.6 02:49:29 54° SSE 02:49:29 54° SSE 03:07:09 10° E visible
27 Jan 9.8 04:55:14 34° WSW 05:04:48 55° SSW 05:23:30 10° ESE visible
28 Jan 10.0 01:52:49 38° ESE 01:52:49 38° ESE 02:04:41 10° E visible
28 Jan 9.4 03:58:35 51° SW 04:02:41 57° S 04:22:08 10° ESE visible
28 Jan 10.1 06:04:21 15° W 06:19:33 43° SSW 06:36:32 10° SE visible
